Ellensburg, WA
on Thursday, January 17, 2013

Thursday
Previous Day Next Day
Daily Summary
 ActualAverage (KYKM)Record (KYKM)
Temperature
Mean Temperature °F 31°F  
Max Temperature 27°F 39°F 61°F (2011)
Min Temperature 24°F 24°F -18°F (1950)
Degree Days
Heating Degree Days 40 34  
Month to date heating degree days 602  
Since 1 July heating degree days 3265  
Cooling Degree Days 0 0  
Month to date cooling degree days 0  
Year to date cooling degree days 0  
Moisture
Dew Point 21°F   
Average Humidity 83    
Maximum Humidity 88    
Minimum Humidity 78    
Precipitation
Precipitation 0.00 in 0.04 in 0.36 in (1999)
Month to date precipitation 0.69  
Year to date precipitation 0.69  
Snow
Snow 0.00 in 0.10 in 2.10 in (1955)
Month to date snowfall 3.5  
Year to date snowfall 3.5  
Since 1 July snowfall 16.5  
Snow Depth in   
Wind
Wind Speed 2 mph   
Max Wind Speed 6 mph   
Max Gust Speed mph   
Visibility 3 miles   
Events Fog   

Key: T is trace of precipitation, MM is missing value
Source: NWS Daily Summary
Time(PST)TemperatureDew PointHumidity Pressure Visibility Wind DirectionWind SpeedGust SpeedPrecipitationEvents Conditions
12:53 AM 27.0°F 21.9°F 81% 30.60 in 4.0 miles WNW 4.6 mph - N/A   Haze
1:53 AM 27.0°F 21.9°F 81% 30.60 in 6.0 miles Calm Calm - N/A   Haze
2:38 AM 26.6°F 21.2°F 80% 30.53 in 5.0 miles Calm Calm - N/A   Haze
2:53 AM 27.0°F 23.0°F 85% 30.59 in 5.0 miles NNW 3.5 mph - N/A   Overcast
3:53 AM 26.1°F 21.9°F 84% 30.58 in 3.0 miles NNW 3.5 mph - N/A   Overcast
4:03 AM 26.6°F 21.2°F 80% 30.51 in 2.0 miles Calm Calm - N/A   Overcast
4:13 AM 26.6°F 21.2°F 80% 30.51 in 1.2 miles Calm Calm - N/A   Overcast
4:53 AM 26.1°F 23.0°F 88% 30.58 in 1.2 miles Calm Calm - N/A   Overcast
5:12 AM 26.6°F 23.0°F 86% 30.50 in 0.8 miles Calm Calm - N/A   Mist
5:53 AM 26.1°F 21.9°F 84% 30.57 in 0.5 miles SW 3.5 mph - N/A Fog Light Freezing Fog
6:53 AM 25.0°F 21.9°F 88% 30.58 in 0.5 miles Calm Calm - N/A Fog Light Freezing Fog
7:53 AM 26.1°F 21.9°F 84% 30.58 in 0.5 miles Calm Calm - N/A Fog Light Freezing Fog
8:43 AM 24.8°F 21.2°F 86% 30.53 in 2.0 miles SE 4.6 mph - N/A   Overcast
8:51 AM 24.8°F 21.2°F 86% 30.53 in 3.0 miles ESE 5.8 mph - N/A   Overcast
8:53 AM 25.0°F 21.0°F 85% 30.60 in 3.0 miles ESE 4.6 mph - N/A   Overcast
9:11 AM 26.6°F 21.2°F 80% 30.53 in 2.5 miles East 4.6 mph - N/A   Haze
9:31 AM 24.8°F 21.2°F 86% 30.53 in 1.2 miles SSW 3.5 mph - N/A   Overcast
9:35 AM 24.8°F 21.2°F 86% 30.53 in 0.8 miles Calm Calm - N/A   Overcast
9:53 AM 26.1°F 21.9°F 84% 30.60 in 1.0 miles Calm Calm - N/A   Overcast
10:01 AM 26.6°F 21.2°F 80% 30.53 in 1.8 miles Calm Calm - N/A   Haze
10:08 AM 26.6°F 21.2°F 80% 30.53 in 2.0 miles Calm Calm - N/A   Haze
10:34 AM 26.6°F 21.2°F 80% 30.52 in 1.5 miles Calm Calm - N/A   Overcast
10:50 AM 26.6°F 21.2°F 80% 30.52 in 1.0 miles Calm Calm - N/A   Overcast
10:53 AM 26.1°F 21.9°F 84% 30.58 in 1.2 miles Calm Calm - N/A   Overcast
11:04 AM 26.6°F 21.2°F 80% 30.51 in 0.8 miles Calm Calm - N/A   Overcast
11:34 AM 26.6°F 21.2°F 80% 30.50 in 1.0 miles Calm Calm - N/A   Overcast
11:43 AM 26.6°F 21.2°F 80% 30.49 in 0.8 miles Calm Calm - N/A   Overcast
11:53 AM 26.1°F 21.9°F 84% 30.55 in 0.8 miles Calm Calm - N/A   Overcast
12:06 PM 26.6°F 21.2°F 80% 30.47 in 1.0 miles Calm Calm - N/A   Haze
12:51 PM 26.6°F 21.2°F 80% 30.46 in 0.8 miles Calm Calm - N/A   Overcast
12:53 PM 26.1°F 21.9°F 84% 30.53 in 1.0 miles Calm Calm - N/A   Overcast
1:04 PM 26.6°F 21.2°F 80% 30.45 in 0.8 miles Calm Calm - N/A   Overcast
1:12 PM 26.6°F 21.2°F 80% 30.45 in 1.2 miles SE 3.5 mph - N/A   Overcast
1:32 PM 26.6°F 21.2°F 80% 30.44 in 2.0 miles Calm Calm - N/A   Overcast
1:53 PM 26.1°F 21.9°F 84% 30.50 in 2.0 miles SE 3.5 mph - N/A   Overcast
2:10 PM 26.6°F 21.2°F 80% 30.43 in 1.5 miles SE 3.5 mph - N/A   Overcast
2:53 PM 26.1°F 21.0°F 81% 30.49 in 3.0 miles SE 4.6 mph - N/A   Haze
3:53 PM 26.1°F 21.0°F 81% 30.49 in 10.0 miles NE 3.5 mph - N/A   Overcast
4:53 PM 25.0°F 19.9°F 81% 30.49 in 10.0 miles Calm Calm - N/A   Overcast
5:53 PM 26.1°F 21.0°F 81% 30.49 in 10.0 miles Calm Calm - N/A   Overcast
6:53 PM 26.1°F 21.0°F 81% 30.49 in 10.0 miles Calm Calm - N/A   Overcast
7:53 PM 26.1°F 21.0°F 81% 30.48 in 9.0 miles NNW 3.5 mph - N/A   Overcast
8:13 PM 24.8°F 21.2°F 86% 30.40 in 9.0 miles NW 3.5 mph - N/A   Overcast
8:53 PM 25.0°F 21.0°F 85% 30.46 in 4.0 miles West 3.5 mph - N/A   Overcast
9:04 PM 24.8°F 21.2°F 86% 30.39 in 2.5 miles West 3.5 mph - N/A   Overcast
9:13 PM 24.8°F 21.2°F 86% 30.38 in 1.8 miles West 4.6 mph - N/A   Overcast
9:21 PM 24.8°F 21.2°F 86% 30.38 in 2.0 miles WSW 3.5 mph - N/A   Overcast
9:30 PM 24.8°F 21.2°F 86% 30.38 in 1.5 miles WSW 3.5 mph - N/A   Overcast
9:53 PM 25.0°F 21.0°F 85% 30.44 in 2.0 miles West 4.6 mph - N/A   Overcast
10:12 PM 24.8°F 21.2°F 86% 30.36 in 4.0 miles West 4.6 mph - N/A   Overcast
10:53 PM 25.0°F 19.9°F 81% 30.42 in 10.0 miles West 4.6 mph - N/A   Overcast
11:53 PM 25.0°F 19.0°F 78% 30.40 in 10.0 miles SSW 3.5 mph - N/A   Overcast
Moon Phase
Jan. 17 Jan. 18 Jan. 26 Feb. 03 Feb. 10
Sunrise:07:41 AM (PST) Moon Rise:10:22 AM (PST)
Sunset:04:43 PM (PST) Moon Set:No Moon Set/

Copyright © 2014 The Weather Underground, Inc.